Weather History for KDLS - July, 2012

Change the Weather History Date:

Friday, July 13, 2012

  Actual Average Record
Temperature  
Mean Temperature 77 °F -  
Max Temperature 89 °F 85 °F 107 °F (1996)
Min Temperature 66 °F 59 °F 49 °F (1969)
Cooling Degree Days 12    
Growing Degree Days 27 (Base 50)    
Moisture  
Dew Point 52 °F    
Average Humidity 44    
Maximum Humidity 59    
Minimum Humidity 30    
Precipitation  
Precipitation 0.00 in - - ()
Sea Level Pressure  
Sea Level Pressure 29.86 in    
Wind  
Wind Speed 16 mph (NW)    
Max Wind Speed 25 mph    
Max Gust Speed 38 mph    
Visibility 10 miles    
Events      
Averages and records for this station are not official NWS values.
T = Trace of Precipitation, MM = Missing Value Source: NWS Daily Summary

Daily Weather History Graph

Daily Weather History Graph

Search for Another Location

Airport or City:

Trip Planner

Search our weather history database for the weather conditions in past years. The results will help you decide how hot, cold, wet, or windy it might be!

Date:

Astronomy

Jul. 13, 2012 Rise Set
Actual Time 5:28 AM PDT 8:51 PM PDT
Civil Twilight 4:52 AM PDT 9:28 PM PDT
Nautical Twilight 4:03 AM PDT 10:16 PM PDT
Astronomical Twilight 3:02 AM PDT 11:17 PM PDT
Moon 1:12 AM PDT (7/13) 4:24 PM PDT (7/13)
Length of Visible Light 16h 36m
Length of Day
15h 22m
Waning Crescent, 25% of the Moon is Illuminated
Jul 13
Waning Crescent
Jul 18
New
Jul 26
First Quarter
Aug 1
Full
Aug 9
Last Quarter

Hourly Weather History & Observations

Time (PDT) Temp. Heat Index Dew Point Humidity Pressure Visibility Wind Dir Wind Speed Gust Speed Precip Events Conditions
12:53 AM 75.0 °F - 48.0 °F 38% 29.85 in 10.0 mi WNW 18.4 mph 32.2 mph N/A   Clear
1:53 AM 75.0 °F - 46.9 °F 37% 29.85 in 10.0 mi WNW 25.3 mph 38.0 mph N/A   Clear
2:53 AM 71.1 °F - 50.0 °F 47% 29.85 in 10.0 mi NW 15.0 mph 23.0 mph N/A   Clear
3:53 AM 69.1 °F - 50.0 °F 51% 29.86 in 10.0 mi Variable 6.9 mph - N/A   Clear
4:53 AM 66.9 °F - 50.0 °F 54% 29.88 in 10.0 mi NNW 6.9 mph - N/A   Clear
5:53 AM 66.0 °F - 51.1 °F 59% 29.91 in 10.0 mi WNW 11.5 mph 17.3 mph N/A   Clear
6:53 AM 66.9 °F - 51.1 °F 57% 29.94 in 10.0 mi NW 5.8 mph - N/A   Clear
7:53 AM 69.1 °F - 52.0 °F 54% 29.93 in 10.0 mi NW 11.5 mph 19.6 mph N/A   Clear
8:53 AM 71.1 °F - 52.0 °F 51% 29.92 in 10.0 mi NW 10.4 mph - N/A   Clear
9:53 AM 75.0 °F - 53.1 °F 46% 29.90 in 10.0 mi NNW 20.7 mph 26.5 mph N/A   Clear
10:53 AM 78.1 °F - 52.0 °F 40% 29.89 in 10.0 mi NNW 19.6 mph 27.6 mph N/A   Clear
11:53 AM 82.0 °F 81.2 °F 53.1 °F 37% 29.87 in 10.0 mi NNW 21.9 mph 27.6 mph N/A   Clear
12:53 PM 82.9 °F - 52.0 °F 34% 29.85 in 10.0 mi NNW 21.9 mph 29.9 mph N/A   Clear
1:53 PM 86.0 °F - 52.0 °F 31% 29.84 in 10.0 mi NNW 21.9 mph 27.6 mph N/A   Clear
2:53 PM 88.0 °F 85.7 °F 53.1 °F 30% 29.83 in 10.0 mi NW 15.0 mph 25.3 mph N/A   Clear
3:53 PM 88.0 °F 85.9 °F 54.0 °F 31% 29.83 in 10.0 mi NNW 19.6 mph 25.3 mph N/A   Clear
4:53 PM 87.1 °F 85.3 °F 55.0 °F 33% 29.82 in 10.0 mi NNW 16.1 mph 24.2 mph N/A   Clear
5:53 PM 84.9 °F 83.3 °F 54.0 °F 34% 29.81 in 10.0 mi NNW 21.9 mph 26.5 mph N/A   Clear
6:53 PM 82.0 °F 81.3 °F 54.0 °F 38% 29.81 in 10.0 mi NW 19.6 mph 26.5 mph N/A   Clear
8:53 PM 77.0 °F - 55.0 °F 47% 29.83 in 10.0 mi NNW 13.8 mph 26.5 mph N/A   Clear
9:53 PM 75.9 °F - 55.0 °F 48% 29.83 in 10.0 mi NW 11.5 mph - N/A   Clear
10:53 PM 73.9 °F - 55.0 °F 52% 29.85 in 10.0 mi NNW 12.7 mph 19.6 mph N/A   Clear
11:53 PM 73.0 °F - 55.0 °F 53% 29.86 in 10.0 mi NNW 5.8 mph 16.1 mph N/A   Clear